Time,TemperatureF,DewpointF,PressureIn,WindDirection,WindDirectionDegrees,WindSpeedMPH,WindSpeedGustMPH,Humidity,HourlyPrecipIn,Conditions,Clouds,dailyrainin,SoftwareType,DateUTC
2013-10-16 00:07:00,44.9,44.1,29.76,ENE,66,0.0,4.0,97,0.09,,---,0.00,VWS V14.01,2013-10-16 05:07:00,
2013-10-16 00:17:00,44.9,44.1,29.76,NNE,19,0.0,0.0,97,0.08,,---,0.01,VWS V14.01,2013-10-16 05:17:00,
2013-10-16 00:22:00,44.9,44.1,29.76,NNE,31,3.0,7.0,97,0.06,,---,0.01,VWS V14.01,2013-10-16 05:22:00,
2013-10-16 00:27:00,44.8,44.0,29.77,NE,34,6.0,6.0,97,0.05,,---,0.01,VWS V14.01,2013-10-16 05:27:00,
2013-10-16 00:32:00,44.7,43.9,29.76,NNE,32,1.0,6.0,97,0.04,,---,0.01,VWS V14.01,2013-10-16 05:32:00,
2013-10-16 00:37:00,44.7,43.9,29.76,ENE,61,0.0,4.0,97,0.03,,---,0.01,VWS V14.01,2013-10-16 05:37:00,
2013-10-16 00:42:00,44.7,43.9,29.76,East,94,0.0,3.0,97,0.02,,---,0.01,VWS V14.01,2013-10-16 05:42:00,
2013-10-16 00:47:00,44.7,43.9,29.77,NE,51,0.0,2.0,97,0.01,,---,0.01,VWS V14.01,2013-10-16 05:47:00,
2013-10-16 00:52:00,44.7,43.9,29.77,NE,42,0.0,4.0,97,0.02,,---,0.02,VWS V14.01,2013-10-16 05:52:00,
2013-10-16 00:57:00,44.7,43.9,29.77,North,355,4.0,5.0,97,0.02,,---,0.02,VWS V14.01,2013-10-16 05:57:00,
2013-10-16 01:02:00,44.7,43.9,29.76,East,87,0.0,9.0,97,0.02,,---,0.02,VWS V14.01,2013-10-16 06:02:00,
2013-10-16 01:07:00,44.6,43.8,29.76,East,90,0.0,6.0,97,0.02,,---,0.02,VWS V14.01,2013-10-16 06:07:00,
2013-10-16 01:12:00,44.5,43.7,29.77,North,5,1.0,9.0,97,0.02,,---,0.02,VWS V14.01,2013-10-16 06:12:00,
2013-10-16 01:17:00,44.5,43.7,29.77,North,11,0.0,6.0,97,0.02,,---,0.02,VWS V14.01,2013-10-16 06:17:00,
2013-10-16 01:22:00,44.5,43.7,29.77,East,81,1.0,5.0,97,0.01,,---,0.02,VWS V14.01,2013-10-16 06:22:00,
2013-10-16 01:27:00,44.5,43.7,29.77,ESE,108,1.0,6.0,97,0.01,,---,0.02,VWS V14.01,2013-10-16 06:27:00,
2013-10-16 01:32:00,44.5,43.7,29.77,North,11,2.0,5.0,97,0.01,,---,0.02,VWS V14.01,2013-10-16 06:32:00,
2013-10-16 01:37:00,44.5,43.7,29.78,NE,49,1.0,6.0,97,0.02,,---,0.03,VWS V14.01,2013-10-16 06:37:00,
2013-10-16 01:47:00,44.5,43.7,29.77,NNE,22,0.0,6.0,97,0.03,,---,0.04,VWS V14.01,2013-10-16 06:47:00,
2013-10-16 01:52:00,44.5,43.7,29.78,NW,306,2.0,3.0,97,0.04,,---,0.05,VWS V14.01,2013-10-16 06:52:00,
2013-10-16 01:57:00,44.5,43.7,29.78,ESE,110,3.0,5.0,97,0.04,,---,0.06,VWS V14.01,2013-10-16 06:57:00,
2013-10-16 02:02:00,44.2,43.4,29.78,North,9,0.0,7.0,97,0.05,,---,0.07,VWS V14.01,2013-10-16 07:02:00,
2013-10-16 02:07:00,44.0,43.2,29.79,North,9,0.0,3.0,97,0.05,,---,0.07,VWS V14.01,2013-10-16 07:07:00,
2013-10-16 02:17:00,43.7,42.9,29.79,North,9,0.0,3.0,97,0.07,,---,0.09,VWS V14.01,2013-10-16 07:17:00,
2013-10-16 02:22:00,43.6,42.8,29.79,NNW,340,3.0,6.0,97,0.08,,---,0.10,VWS V14.01,2013-10-16 07:22:00,
2013-10-16 02:27:00,43.5,42.7,29.79,NNW,341,0.0,4.0,97,0.08,,---,0.10,VWS V14.01,2013-10-16 07:27:00,
2013-10-16 02:32:00,43.5,42.7,29.79,West,281,0.0,4.0,97,0.09,,---,0.11,VWS V14.01,2013-10-16 07:32:00,
2013-10-16 02:37:00,43.5,42.7,29.79,NNW,343,2.0,2.0,97,0.09,,---,0.11,VWS V14.01,2013-10-16 07:37:00,
2013-10-16 02:42:00,43.5,42.7,29.79,NNW,327,0.0,10.0,97,0.08,,---,0.11,VWS V14.01,2013-10-16 07:42:00,
2013-10-16 02:47:00,43.5,42.7,29.79,NNW,330,0.0,4.0,97,0.09,,---,0.12,VWS V14.01,2013-10-16 07:47:00,
2013-10-16 02:52:00,43.5,42.7,29.79,North,360,2.0,5.0,97,0.08,,---,0.12,VWS V14.01,2013-10-16 07:52:00,
2013-10-16 02:57:00,43.4,42.6,29.80,North,355,0.0,7.0,97,0.07,,---,0.12,VWS V14.01,2013-10-16 07:57:00,
2013-10-16 03:02:00,43.4,42.6,29.80,North,355,0.0,3.0,97,0.06,,---,0.12,VWS V14.01,2013-10-16 08:02:00,
2013-10-16 03:07:00,43.3,42.5,29.80,North,355,0.0,5.0,97,0.05,,---,0.12,VWS V14.01,2013-10-16 08:07:00,
2013-10-16 03:12:00,43.2,42.4,29.79,North,355,2.0,6.0,97,0.05,,---,0.12,VWS V14.01,2013-10-16 08:12:00,
2013-10-16 03:17:00,43.1,42.3,29.80,North,5,0.0,4.0,97,0.05,,---,0.13,VWS V14.01,2013-10-16 08:17:00,
2013-10-16 03:22:00,43.0,42.2,29.80,North,5,0.0,2.0,97,0.04,,---,0.13,VWS V14.01,2013-10-16 08:22:00,
2013-10-16 03:27:00,42.9,42.1,29.80,NNE,23,0.0,9.0,97,0.03,,---,0.13,VWS V14.01,2013-10-16 08:27:00,
2013-10-16 03:32:00,42.9,42.1,29.80,NNE,20,0.0,4.0,97,0.03,,---,0.13,VWS V14.01,2013-10-16 08:32:00,
2013-10-16 03:37:00,42.8,42.0,29.80,NNW,338,0.0,3.0,97,0.02,,---,0.13,VWS V14.01,2013-10-16 08:37:00,
2013-10-16 03:42:00,42.7,41.9,29.80,NNW,338,0.0,4.0,97,0.02,,---,0.13,VWS V14.01,2013-10-16 08:42:00,
2013-10-16 03:47:00,42.7,41.9,29.80,NNE,17,6.0,6.0,97,0.02,,---,0.13,VWS V14.01,2013-10-16 08:47:00,
2013-10-16 03:52:00,42.5,41.7,29.80,NNE,16,0.0,6.0,97,0.02,,---,0.14,VWS V14.01,2013-10-16 08:52:00,
2013-10-16 03:57:00,42.5,41.7,29.80,NNE,16,0.0,3.0,97,0.02,,---,0.14,VWS V14.01,2013-10-16 08:57:00,
2013-10-16 04:02:00,42.5,41.7,29.81,NNE,16,0.0,4.0,97,0.02,,---,0.14,VWS V14.01,2013-10-16 09:02:00,
2013-10-16 04:07:00,42.5,41.7,29.81,NNE,24,0.0,4.0,97,0.02,,---,0.14,VWS V14.01,2013-10-16 09:07:00,
2013-10-16 04:12:00,42.4,41.6,29.81,NNE,24,0.0,0.0,97,0.02,,---,0.14,VWS V14.01,2013-10-16 09:12:00,
2013-10-16 04:22:00,42.3,41.5,29.82,North,10,0.0,7.0,97,0.01,,---,0.14,VWS V14.01,2013-10-16 09:22:00,
2013-10-16 04:27:00,42.2,41.4,29.82,NNE,13,0.0,6.0,97,0.02,,---,0.15,VWS V14.01,2013-10-16 09:27:00,
2013-10-16 04:32:00,42.1,41.3,29.82,NNE,31,0.0,7.0,97,0.02,,---,0.15,VWS V14.01,2013-10-16 09:32:00,
2013-10-16 04:37:00,42.1,41.3,29.82,NNE,22,0.0,6.0,97,0.02,,---,0.15,VWS V14.01,2013-10-16 09:37:00,
2013-10-16 04:47:00,41.9,41.1,29.83,NNE,15,0.0,4.0,97,0.02,,---,0.15,VWS V14.01,2013-10-16 09:47:00,
2013-10-16 04:57:00,41.8,41.0,29.83,NNE,13,0.0,2.0,97,0.01,,---,0.15,VWS V14.01,2013-10-16 09:57:00,
2013-10-16 05:02:00,41.7,40.9,29.83,NNE,13,0.0,0.0,97,0.01,,---,0.15,VWS V14.01,2013-10-16 10:02:00,
2013-10-16 05:07:00,41.7,40.9,29.83,NW,313,0.0,0.0,97,0.01,,---,0.15,VWS V14.01,2013-10-16 10:07:00,
2013-10-16 05:17:00,41.6,40.8,29.83,NNE,18,2.0,3.0,97,0.01,,---,0.15,VWS V14.01,2013-10-16 10:17:00,
2013-10-16 05:22:00,41.7,40.9,29.83,NNE,18,0.0,2.0,97,0.01,,---,0.15,VWS V14.01,2013-10-16 10:22:00,
2013-10-16 05:27:00,41.6,40.8,29.83,North,351,0.0,7.0,97,0.02,,---,0.16,VWS V14.01,2013-10-16 10:27:00,
2013-10-16 05:32:00,41.6,40.8,29.83,North,351,0.0,2.0,97,0.01,,---,0.16,VWS V14.01,2013-10-16 10:32:00,
2013-10-16 05:42:00,41.5,40.7,29.84,North,350,0.0,1.0,97,0.01,,---,0.16,VWS V14.01,2013-10-16 10:42:00,
2013-10-16 05:47:00,41.5,40.7,29.84,North,351,0.0,2.0,97,0.01,,---,0.16,VWS V14.01,2013-10-16 10:47:00,
2013-10-16 05:57:00,41.5,40.7,29.84,North,350,0.0,0.0,97,0.01,,---,0.16,VWS V14.01,2013-10-16 10:57:00,
2013-10-16 06:02:00,41.5,40.7,29.84,North,351,0.0,0.0,97,0.01,,---,0.16,VWS V14.01,2013-10-16 11:02:00,
2013-10-16 06:12:00,41.5,40.7,29.84,North,355,0.0,0.0,97,0.02,,---,0.17,VWS V14.01,2013-10-16 11:12:00,
2013-10-16 06:17:00,41.5,40.7,29.84,North,355,0.0,0.0,97,0.02,,---,0.17,VWS V14.01,2013-10-16 11:17:00,
2013-10-16 06:22:00,41.5,40.7,29.84,North,355,0.0,2.0,97,0.02,,---,0.17,VWS V14.01,2013-10-16 11:22:00,
2013-10-16 06:27:00,41.5,40.7,29.84,North,355,0.0,1.0,97,0.02,,---,0.17,VWS V14.01,2013-10-16 11:27:00,
2013-10-16 06:37:00,41.2,40.4,29.84,North,355,0.0,0.0,97,0.01,,---,0.17,VWS V14.01,2013-10-16 11:37:00,
2013-10-16 06:42:00,41.2,40.4,29.84,North,355,0.0,0.0,97,0.01,,---,0.17,VWS V14.01,2013-10-16 11:42:00,
2013-10-16 06:52:00,41.4,40.6,29.84,North,355,0.0,0.0,97,0.01,,---,0.17,VWS V14.01,2013-10-16 11:52:00,
2013-10-16 06:57:00,41.4,40.6,29.84,North,355,0.0,3.0,97,0.01,,---,0.17,VWS V14.01,2013-10-16 11:57:00,
2013-10-16 07:02:00,41.4,40.6,29.84,North,355,0.0,3.0,97,0.01,,---,0.17,VWS V14.01,2013-10-16 12:02:00,
2013-10-16 07:07:00,41.4,40.6,29.85,North,355,0.0,3.0,97,0.02,,---,0.18,VWS V14.01,2013-10-16 12:07:00,
2013-10-16 07:17:00,41.4,40.6,29.85,North,349,3.0,6.0,97,0.01,,---,0.18,VWS V14.01,2013-10-16 12:17:00,
2013-10-16 07:22:00,41.2,40.4,29.85,North,350,0.0,4.0,97,0.01,,---,0.18,VWS V14.01,2013-10-16 12:22:00,
2013-10-16 07:27:00,41.2,40.4,29.85,North,355,0.0,6.0,97,0.01,,---,0.18,VWS V14.01,2013-10-16 12:27:00,
2013-10-16 07:32:00,41.1,40.3,29.85,NNE,21,0.0,5.0,97,0.01,,---,0.18,VWS V14.01,2013-10-16 12:32:00,
2013-10-16 07:37:00,41.0,40.2,29.85,North,350,0.0,4.0,97,0.01,,---,0.18,VWS V14.01,2013-10-16 12:37:00,
2013-10-16 07:47:00,40.9,40.1,29.86,North,350,2.0,3.0,97,0.01,,---,0.18,VWS V14.01,2013-10-16 12:47:00,
2013-10-16 07:57:00,40.9,40.1,29.86,North,350,0.0,0.0,97,0.02,,---,0.19,VWS V14.01,2013-10-16 12:57:00,
2013-10-16 08:02:00,40.7,39.9,29.86,North,350,0.0,3.0,97,0.02,,---,0.19,VWS V14.01,2013-10-16 13:02:00,
2013-10-16 08:12:00,40.7,39.9,29.86,North,350,0.0,0.0,97,0.01,,---,0.19,VWS V14.01,2013-10-16 13:12:00,
2013-10-16 08:17:00,40.6,39.8,29.86,North,350,0.0,1.0,97,0.01,,---,0.19,VWS V14.01,2013-10-16 13:17:00,
2013-10-16 08:27:00,40.6,39.8,29.86,North,350,0.0,2.0,97,0.01,,---,0.19,VWS V14.01,2013-10-16 13:27:00,
2013-10-16 08:32:00,40.6,39.8,29.86,North,350,0.0,0.0,97,0.01,,---,0.19,VWS V14.01,2013-10-16 13:32:00,
2013-10-16 08:37:00,40.7,39.9,29.86,North,350,0.0,0.0,97,0.01,,---,0.19,VWS V14.01,2013-10-16 13:37:00,
2013-10-16 08:42:00,40.8,40.0,29.87,North,350,0.0,0.0,97,0.01,,---,0.19,VWS V14.01,2013-10-16 13:42:00,
2013-10-16 08:52:00,40.9,40.1,29.87,North,350,0.0,0.0,97,0.01,,---,0.19,VWS V14.01,2013-10-16 13:52:00,
2013-10-16 08:57:00,40.9,40.1,29.87,North,350,0.0,0.0,97,0.00,,---,0.19,VWS V14.01,2013-10-16 13:57:00,
2013-10-16 09:07:00,40.9,40.1,29.87,North,350,0.0,0.0,97,0.00,,---,0.19,VWS V14.01,2013-10-16 14:07:00,
2013-10-16 09:17:00,41.1,40.3,29.87,North,350,0.0,1.0,97,0.00,,---,0.19,VWS V14.01,2013-10-16 14:17:00,
2013-10-16 09:22:00,41.1,40.3,29.87,North,350,0.0,0.0,97,0.00,,---,0.19,VWS V14.01,2013-10-16 14:22:00,
2013-10-16 09:27:00,41.0,40.2,29.87,North,350,0.0,0.0,97,0.00,,---,0.19,VWS V14.01,2013-10-16 14:27:00,
2013-10-16 09:37:00,41.0,40.2,29.88,North,350,0.0,0.0,97,0.00,,---,0.19,VWS V14.01,2013-10-16 14:37:00,
2013-10-16 09:42:00,41.0,40.2,29.88,North,350,0.0,0.0,97,0.00,,---,0.19,VWS V14.01,2013-10-16 14:42:00,
2013-10-16 09:47:00,41.1,40.3,29.88,North,350,0.0,0.0,97,0.00,,---,0.19,VWS V14.01,2013-10-16 14:47:00,
2013-10-16 09:52:00,41.2,40.4,29.88,North,350,0.0,0.0,97,0.00,,---,0.19,VWS V14.01,2013-10-16 14:52:00,
2013-10-16 10:02:00,41.4,40.6,29.88,WNW,303,0.0,2.0,97,0.00,,---,0.19,VWS V14.01,2013-10-16 15:02:00,
2013-10-16 10:07:00,41.4,40.6,29.89,WNW,303,0.0,0.0,97,0.00,,---,0.19,VWS V14.01,2013-10-16 15:07:00,
2013-10-16 10:12:00,41.4,40.6,29.89,WNW,303,0.0,2.0,97,0.00,,---,0.19,VWS V14.01,2013-10-16 15:12:00,
2013-10-16 10:17:00,41.4,40.6,29.88,WNW,303,0.0,0.0,97,0.00,,---,0.19,VWS V14.01,2013-10-16 15:17:00,
2013-10-16 10:27:00,41.2,40.4,29.88,WNW,303,0.0,2.0,97,0.00,,---,0.19,VWS V14.01,2013-10-16 15:27:00,
2013-10-16 10:37:00,41.1,40.3,29.88,WNW,300,0.0,0.0,97,0.00,,---,0.19,VWS V14.01,2013-10-16 15:37:00,
2013-10-16 10:47:00,41.3,40.5,29.88,WNW,300,0.0,0.0,97,0.00,,---,0.19,VWS V14.01,2013-10-16 15:47:00,
2013-10-16 10:52:00,41.4,40.6,29.89,WNW,297,2.0,4.0,97,0.00,,---,0.19,VWS V14.01,2013-10-16 15:52:00,
2013-10-16 10:57:00,41.3,40.5,29.88,WNW,296,0.0,3.0,97,0.00,,---,0.19,VWS V14.01,2013-10-16 15:57:00,
2013-10-16 11:02:00,41.4,40.6,29.89,WNW,296,0.0,2.0,97,0.00,,---,0.19,VWS V14.01,2013-10-16 16:02:00,
2013-10-16 11:07:00,41.6,40.8,29.88,WNW,296,0.0,0.0,97,0.00,,---,0.19,VWS V14.01,2013-10-16 16:07:00,
2013-10-16 11:12:00,41.5,40.7,29.88,WNW,296,2.0,2.0,97,0.00,,---,0.19,VWS V14.01,2013-10-16 16:12:00,
2013-10-16 11:17:00,41.3,40.5,29.89,West,267,0.0,5.0,97,0.00,,---,0.19,VWS V14.01,2013-10-16 16:17:00,
2013-10-16 11:22:00,41.4,40.6,29.89,West,267,0.0,4.0,97,0.00,,---,0.19,VWS V14.01,2013-10-16 16:22:00,
2013-10-16 11:32:00,41.8,41.0,29.88,West,267,0.0,4.0,97,0.00,,---,0.19,VWS V14.01,2013-10-16 16:32:00,
2013-10-16 11:42:00,41.7,40.9,29.88,West,267,0.0,0.0,97,0.00,,---,0.19,VWS V14.01,2013-10-16 16:42:00,
2013-10-16 11:52:00,41.6,40.8,29.88,WNW,293,4.0,5.0,97,0.00,,---,0.19,VWS V14.01,2013-10-16 16:52:00,
2013-10-16 11:57:00,41.4,40.6,29.89,WNW,292,4.0,6.0,97,0.00,,---,0.19,VWS V14.01,2013-10-16 16:57:00,
2013-10-16 12:07:00,41.8,41.0,29.89,West,264,0.0,0.0,97,0.00,,---,0.19,VWS V14.01,2013-10-16 17:07:00,
2013-10-16 12:12:00,42.0,41.2,29.89,West,264,0.0,4.0,97,0.00,,---,0.19,VWS V14.01,2013-10-16 17:12:00,
2013-10-16 12:17:00,41.7,40.9,29.88,West,279,6.0,8.0,97,0.00,,---,0.19,VWS V14.01,2013-10-16 17:17:00,
2013-10-16 12:22:00,41.6,40.8,29.89,West,268,4.0,6.0,97,0.00,,---,0.19,VWS V14.01,2013-10-16 17:22:00,
2013-10-16 12:27:00,41.8,41.0,29.89,West,268,0.0,5.0,97,0.00,,---,0.19,VWS V14.01,2013-10-16 17:27:00,
2013-10-16 12:32:00,42.0,40.9,29.89,West,268,0.0,3.0,96,0.00,,---,0.19,VWS V14.01,2013-10-16 17:32:00,
2013-10-16 12:37:00,42.2,41.1,29.89,West,268,4.0,4.0,96,0.00,,---,0.19,VWS V14.01,2013-10-16 17:37:00,
2013-10-16 12:42:00,42.2,41.1,29.89,WNW,286,0.0,6.0,96,0.00,,---,0.19,VWS V14.01,2013-10-16 17:42:00,
2013-10-16 12:47:00,42.4,41.3,29.89,WNW,286,0.0,4.0,96,0.00,,---,0.19,VWS V14.01,2013-10-16 17:47:00,
2013-10-16 12:57:00,42.8,41.2,29.88,West,263,6.0,6.0,94,0.00,,---,0.19,VWS V14.01,2013-10-16 17:57:00,
2013-10-16 13:02:00,43.1,41.2,29.88,West,264,4.0,6.0,93,0.00,,---,0.19,VWS V14.01,2013-10-16 18:02:00,
2013-10-16 13:07:00,43.2,41.0,29.88,West,264,2.0,4.0,92,0.00,,---,0.19,VWS V14.01,2013-10-16 18:07:00,
2013-10-16 13:12:00,43.3,40.8,29.87,West,270,2.0,5.0,91,0.00,,---,0.19,VWS V14.01,2013-10-16 18:12:00,
2013-10-16 13:17:00,43.4,40.7,29.87,West,281,0.0,7.0,90,0.00,,---,0.19,VWS V14.01,2013-10-16 18:17:00,
2013-10-16 13:22:00,43.5,40.8,29.87,West,281,0.0,0.0,90,0.00,,---,0.19,VWS V14.01,2013-10-16 18:22:00,
2013-10-16 13:27:00,43.5,40.2,29.87,West,271,0.0,9.0,88,0.00,,---,0.19,VWS V14.01,2013-10-16 18:27:00,
2013-10-16 13:37:00,43.7,39.8,29.87,WNW,286,10.0,10.0,86,0.00,,---,0.19,VWS V14.01,2013-10-16 18:37:00,
2013-10-16 13:47:00,43.7,39.8,29.87,WNW,289,6.0,9.0,86,0.00,,---,0.19,VWS V14.01,2013-10-16 18:47:00,
2013-10-16 13:52:00,43.7,39.8,29.87,WNW,292,0.0,10.0,86,0.00,,---,0.19,VWS V14.01,2013-10-16 18:52:00,
2013-10-16 13:57:00,43.5,39.0,29.87,WNW,291,7.0,9.0,84,0.00,,---,0.19,VWS V14.01,2013-10-16 18:57:00,
2013-10-16 14:02:00,43.2,39.0,29.87,West,266,5.0,10.0,85,0.00,,---,0.19,VWS V14.01,2013-10-16 19:02:00,
2013-10-16 14:07:00,43.1,38.9,29.87,West,280,5.0,9.0,85,0.00,,---,0.19,VWS V14.01,2013-10-16 19:07:00,
2013-10-16 14:12:00,43.1,38.9,29.87,WNW,282,5.0,7.0,85,0.00,,---,0.19,VWS V14.01,2013-10-16 19:12:00,
2013-10-16 14:17:00,43.1,39.2,29.87,WNW,288,5.0,5.0,86,0.00,,---,0.19,VWS V14.01,2013-10-16 19:17:00,
2013-10-16 14:22:00,43.0,39.1,29.87,West,260,5.0,7.0,86,0.00,,---,0.19,VWS V14.01,2013-10-16 19:22:00,
2013-10-16 14:32:00,42.9,38.7,29.87,West,278,5.0,7.0,85,0.00,,---,0.19,VWS V14.01,2013-10-16 19:32:00,
2013-10-16 14:37:00,43.0,38.8,29.87,West,269,4.0,10.0,85,0.00,,---,0.19,VWS V14.01,2013-10-16 19:37:00,
2013-10-16 14:42:00,43.1,38.9,29.87,WNW,290,1.0,7.0,85,0.00,,---,0.19,VWS V14.01,2013-10-16 19:42:00,
2013-10-16 14:47:00,43.3,39.1,29.87,NW,304,6.0,6.0,85,0.00,,---,0.19,VWS V14.01,2013-10-16 19:47:00,
2013-10-16 14:52:00,43.4,38.9,29.87,WNW,283,5.0,10.0,84,0.00,,---,0.19,VWS V14.01,2013-10-16 19:52:00,
2013-10-16 14:57:00,43.4,38.6,29.87,WNW,300,5.0,10.0,83,0.00,,---,0.19,VWS V14.01,2013-10-16 19:57:00,
2013-10-16 15:02:00,43.5,39.0,29.88,WNW,291,4.0,9.0,84,0.00,,---,0.19,VWS V14.01,2013-10-16 20:02:00,
2013-10-16 15:07:00,43.7,38.6,29.87,WNW,284,3.0,6.0,82,0.00,,---,0.19,VWS V14.01,2013-10-16 20:07:00,
2013-10-16 15:12:00,43.8,38.7,29.87,WNW,284,5.0,6.0,82,0.00,,---,0.19,VWS V14.01,2013-10-16 20:12:00,
2013-10-16 15:17:00,43.7,38.6,29.87,WNW,284,3.0,7.0,82,0.00,,---,0.19,VWS V14.01,2013-10-16 20:17:00,
2013-10-16 15:27:00,44.6,39.1,29.87,West,281,6.0,7.0,81,0.00,,---,0.19,VWS V14.01,2013-10-16 20:27:00,
2013-10-16 15:32:00,44.6,38.5,29.87,WSW,244,1.0,9.0,79,0.00,,---,0.19,VWS V14.01,2013-10-16 20:32:00,
2013-10-16 15:42:00,44.5,38.7,29.87,West,266,1.0,10.0,80,0.00,,---,0.19,VWS V14.01,2013-10-16 20:42:00,
2013-10-16 15:47:00,44.4,38.6,29.87,WNW,287,1.0,6.0,80,0.00,,---,0.19,VWS V14.01,2013-10-16 20:47:00,
2013-10-16 15:52:00,44.9,39.8,29.87,West,280,6.0,9.0,82,0.00,,---,0.19,VWS V14.01,2013-10-16 20:52:00,
2013-10-16 15:57:00,45.7,39.6,29.87,SW,225,6.0,9.0,79,0.00,,---,0.19,VWS V14.01,2013-10-16 20:57:00,
2013-10-16 16:07:00,45.9,38.4,29.87,WSW,257,9.0,11.0,75,0.00,,---,0.19,VWS V14.01,2013-10-16 21:07:00,
2013-10-16 16:12:00,45.9,38.4,29.87,West,265,3.0,10.0,75,0.00,,---,0.19,VWS V14.01,2013-10-16 21:12:00,
2013-10-16 16:17:00,45.4,38.6,29.86,West,268,5.0,7.0,77,0.00,,---,0.19,VWS V14.01,2013-10-16 21:17:00,
2013-10-16 16:22:00,45.2,38.1,29.86,West,259,0.0,7.0,76,0.00,,---,0.19,VWS V14.01,2013-10-16 21:22:00,
2013-10-16 16:32:00,45.1,38.3,29.86,West,259,4.0,6.0,77,0.00,,---,0.19,VWS V14.01,2013-10-16 21:32:00,
2013-10-16 16:42:00,45.2,38.4,29.86,WNW,285,2.0,5.0,77,0.00,,---,0.19,VWS V14.01,2013-10-16 21:42:00,
2013-10-16 16:47:00,45.5,38.7,29.86,SW,227,0.0,7.0,77,0.00,,---,0.19,VWS V14.01,2013-10-16 21:47:00,
2013-10-16 16:57:00,45.0,38.2,29.87,WSW,254,2.0,5.0,77,0.00,,---,0.19,VWS V14.01,2013-10-16 21:57:00,
2013-10-16 17:02:00,45.2,38.1,29.87,WSW,254,0.0,3.0,76,0.00,,---,0.19,VWS V14.01,2013-10-16 22:02:00,
2013-10-16 17:12:00,45.5,38.7,29.87,WSW,246,0.0,6.0,77,0.00,,---,0.19,VWS V14.01,2013-10-16 22:12:00,
2013-10-16 17:17:00,45.5,38.7,29.86,WSW,247,0.0,4.0,77,0.00,,---,0.19,VWS V14.01,2013-10-16 22:17:00,
2013-10-16 17:22:00,45.5,38.4,29.87,WSW,242,0.0,5.0,76,0.00,,---,0.19,VWS V14.01,2013-10-16 22:22:00,
2013-10-16 17:27:00,45.4,38.3,29.86,WSW,242,3.0,4.0,76,0.00,,---,0.19,VWS V14.01,2013-10-16 22:27:00,
2013-10-16 17:37:00,45.0,38.6,29.87,WSW,240,0.0,5.0,78,0.00,,---,0.19,VWS V14.01,2013-10-16 22:37:00,
2013-10-16 17:42:00,44.7,38.3,29.87,WSW,240,0.0,4.0,78,0.00,,---,0.19,VWS V14.01,2013-10-16 22:42:00,
2013-10-16 17:47:00,44.5,38.4,29.87,WSW,240,0.0,1.0,79,0.00,,---,0.19,VWS V14.01,2013-10-16 22:47:00,
2013-10-16 17:52:00,44.3,38.2,29.87,WSW,240,0.0,0.0,79,0.00,,---,0.19,VWS V14.01,2013-10-16 22:52:00,
2013-10-16 17:57:00,43.9,38.1,29.87,WSW,238,0.0,3.0,80,0.00,,---,0.19,VWS V14.01,2013-10-16 22:57:00,
2013-10-16 18:02:00,43.3,37.9,29.87,WSW,237,0.0,0.0,81,0.00,,---,0.19,VWS V14.01,2013-10-16 23:02:00,
2013-10-16 18:12:00,42.4,37.6,29.86,WSW,237,0.0,0.0,83,0.00,,---,0.19,VWS V14.01,2013-10-16 23:12:00,
2013-10-16 18:22:00,41.8,37.3,29.87,SW,222,0.0,5.0,84,0.00,,---,0.19,VWS V14.01,2013-10-16 23:22:00,
2013-10-16 18:27:00,41.6,37.4,29.87,SSW,195,0.0,6.0,85,0.00,,---,0.19,VWS V14.01,2013-10-16 23:27:00,
2013-10-16 18:32:00,41.4,37.2,29.87,SW,236,0.0,5.0,85,0.00,,---,0.19,VWS V14.01,2013-10-16 23:32:00,
2013-10-16 18:42:00,41.0,37.1,29.87,SSW,205,0.0,3.0,86,0.00,,---,0.19,VWS V14.01,2013-10-16 23:42:00,
2013-10-16 18:47:00,40.8,36.9,29.87,SSW,194,3.0,3.0,86,0.00,,---,0.19,VWS V14.01,2013-10-16 23:47:00,
2013-10-16 18:52:00,40.6,36.8,29.87,SSW,194,0.0,4.0,86,0.00,,---,0.19,VWS V14.01,2013-10-16 23:52:00,
2013-10-16 18:57:00,40.5,36.9,29.87,South,186,0.0,6.0,87,0.00,,---,0.19,VWS V14.01,2013-10-16 23:57:00,
2013-10-16 19:02:00,40.4,36.8,29.87,South,188,0.0,6.0,87,0.00,,---,0.19,VWS V14.01,2013-10-17 00:02:00,
2013-10-16 19:12:00,40.2,36.7,29.88,SSW,193,0.0,6.0,87,0.00,,---,0.19,VWS V14.01,2013-10-17 00:12:00,
2013-10-16 19:17:00,40.2,36.7,29.88,South,180,0.0,5.0,87,0.00,,---,0.19,VWS V14.01,2013-10-17 00:17:00,
2013-10-16 19:27:00,40.0,36.5,29.88,SSW,201,3.0,6.0,87,0.00,,---,0.19,VWS V14.01,2013-10-17 00:27:00,
2013-10-16 19:32:00,39.9,36.3,29.88,SW,219,3.0,10.0,87,0.00,,---,0.19,VWS V14.01,2013-10-17 00:32:00,
2013-10-16 19:37:00,39.9,36.3,29.87,South,190,0.0,5.0,87,0.00,,---,0.19,VWS V14.01,2013-10-17 00:37:00,
2013-10-16 19:42:00,39.8,36.5,29.87,SSW,200,2.0,5.0,88,0.00,,---,0.19,VWS V14.01,2013-10-17 00:42:00,
2013-10-16 19:47:00,39.8,36.2,29.88,SSW,198,0.0,9.0,87,0.00,,---,0.19,VWS V14.01,2013-10-17 00:47:00,
2013-10-16 19:57:00,39.7,36.2,29.88,South,178,3.0,6.0,87,0.00,,---,0.19,VWS V14.01,2013-10-17 00:57:00,
2013-10-16 20:02:00,39.7,36.2,29.87,South,190,3.0,8.0,87,0.00,,---,0.19,VWS V14.01,2013-10-17 01:02:00,
2013-10-16 20:07:00,39.7,36.2,29.88,SSW,211,4.0,9.0,87,0.00,,---,0.19,VWS V14.01,2013-10-17 01:07:00,
2013-10-16 20:12:00,39.7,36.2,29.88,SSW,205,0.0,5.0,87,0.00,,---,0.19,VWS V14.01,2013-10-17 01:12:00,
2013-10-16 20:17:00,39.7,36.2,29.88,SSW,207,3.0,9.0,87,0.00,,---,0.19,VWS V14.01,2013-10-17 01:17:00,
2013-10-16 20:27:00,39.8,36.0,29.88,SW,236,0.0,9.0,86,0.00,,---,0.19,VWS V14.01,2013-10-17 01:27:00,
2013-10-16 20:37:00,39.8,36.0,29.88,SW,215,5.0,12.0,86,0.00,,---,0.19,VWS V14.01,2013-10-17 01:37:00,
2013-10-16 20:42:00,39.8,36.0,29.87,WSW,240,4.0,12.0,86,0.00,,---,0.19,VWS V14.01,2013-10-17 01:42:00,
2013-10-16 20:47:00,39.9,36.1,29.88,SW,226,2.0,12.0,86,0.00,,---,0.19,VWS V14.01,2013-10-17 01:47:00,
2013-10-16 20:57:00,39.8,36.0,29.88,WSW,238,1.0,11.0,86,0.00,,---,0.19,VWS V14.01,2013-10-17 01:57:00,
2013-10-16 21:02:00,39.8,36.0,29.88,South,188,6.0,12.0,86,0.00,,---,0.19,VWS V14.01,2013-10-17 02:02:00,
2013-10-16 21:07:00,39.8,36.0,29.88,SSW,194,1.0,9.0,86,0.00,,---,0.19,VWS V14.01,2013-10-17 02:07:00,
2013-10-16 21:12:00,39.8,36.0,29.88,WSW,254,3.0,10.0,86,0.00,,---,0.19,VWS V14.01,2013-10-17 02:12:00,
2013-10-16 21:17:00,39.8,36.0,29.88,SSW,196,5.0,10.0,86,0.00,,---,0.19,VWS V14.01,2013-10-17 02:17:00,
2013-10-16 21:22:00,39.7,36.2,29.88,SSW,201,0.0,9.0,87,0.00,,---,0.19,VWS V14.01,2013-10-17 02:22:00,
2013-10-16 21:27:00,39.7,36.2,29.88,South,188,1.0,10.0,87,0.00,,---,0.19,VWS V14.01,2013-10-17 02:27:00,
2013-10-16 21:32:00,39.6,36.1,29.88,SSW,198,5.0,6.0,87,0.00,,---,0.19,VWS V14.01,2013-10-17 02:32:00,
2013-10-16 21:42:00,39.5,36.2,29.88,South,190,5.0,10.0,88,0.00,,---,0.19,VWS V14.01,2013-10-17 02:42:00,
2013-10-16 21:47:00,39.5,36.2,29.87,South,180,3.0,10.0,88,0.00,,---,0.19,VWS V14.01,2013-10-17 02:47:00,
2013-10-16 21:52:00,39.5,36.2,29.87,WSW,245,2.0,10.0,88,0.00,,---,0.19,VWS V14.01,2013-10-17 02:52:00,
2013-10-16 21:57:00,39.4,36.2,29.87,South,175,3.0,7.0,88,0.00,,---,0.19,VWS V14.01,2013-10-17 02:57:00,
2013-10-16 22:02:00,39.4,36.2,29.87,SSW,213,2.0,9.0,88,0.00,,---,0.19,VWS V14.01,2013-10-17 03:02:00,
2013-10-16 22:07:00,39.4,36.2,29.88,SSW,193,6.0,11.0,88,0.00,,---,0.19,VWS V14.01,2013-10-17 03:07:00,
2013-10-16 22:12:00,39.4,35.9,29.88,SSW,208,2.0,13.0,87,0.00,,---,0.19,VWS V14.01,2013-10-17 03:12:00,
2013-10-16 22:17:00,39.4,36.2,29.88,South,190,5.0,11.0,88,0.00,,---,0.19,VWS V14.01,2013-10-17 03:17:00,
2013-10-16 22:27:00,39.5,36.0,29.88,SSW,207,7.0,15.0,87,0.00,,---,0.19,VWS V14.01,2013-10-17 03:27:00,
2013-10-16 22:32:00,39.4,35.9,29.88,SW,236,5.0,12.0,87,0.00,,---,0.19,VWS V14.01,2013-10-17 03:32:00,
2013-10-16 22:37:00,39.3,35.8,29.88,SSW,204,4.0,14.0,87,0.00,,---,0.19,VWS V14.01,2013-10-17 03:37:00,
2013-10-16 22:42:00,39.3,36.0,29.88,SSW,208,2.0,12.0,88,0.00,,---,0.19,VWS V14.01,2013-10-17 03:42:00,
2013-10-16 22:52:00,39.2,36.0,29.87,South,191,4.0,14.0,88,0.00,,---,0.19,VWS V14.01,2013-10-17 03:52:00,
2013-10-16 22:57:00,39.2,36.0,29.88,South,171,6.0,15.0,88,0.00,,---,0.19,VWS V14.01,2013-10-17 03:57:00,
2013-10-16 23:02:00,39.1,35.8,29.88,SW,236,4.0,13.0,88,0.00,,---,0.19,VWS V14.01,2013-10-17 04:02:00,
2013-10-16 23:07:00,39.0,35.8,29.88,SSW,201,4.0,12.0,88,0.00,,---,0.19,VWS V14.01,2013-10-17 04:07:00,
2013-10-16 23:12:00,39.0,35.8,29.88,SSW,195,11.0,11.0,88,0.00,,---,0.19,VWS V14.01,2013-10-17 04:12:00,
2013-10-16 23:17:00,39.1,35.8,29.88,SSW,192,4.0,13.0,88,0.00,,---,0.19,VWS V14.01,2013-10-17 04:17:00,
2013-10-16 23:22:00,39.0,35.8,29.87,SSW,197,9.0,12.0,88,0.00,,---,0.19,VWS V14.01,2013-10-17 04:22:00,
2013-10-16 23:27:00,39.0,35.8,29.87,SSW,195,6.0,13.0,88,0.00,,---,0.19,VWS V14.01,2013-10-17 04:27:00,
2013-10-16 23:32:00,39.0,35.8,29.87,SSW,192,6.0,14.0,88,0.00,,---,0.19,VWS V14.01,2013-10-17 04:32:00,
2013-10-16 23:37:00,38.9,35.7,29.88,SSW,194,7.0,13.0,88,0.00,,---,0.19,VWS V14.01,2013-10-17 04:37:00,
2013-10-16 23:42:00,38.9,35.7,29.88,SSW,213,5.0,12.0,88,0.00,,---,0.19,VWS V14.01,2013-10-17 04:42:00,
2013-10-16 23:52:00,38.8,35.6,29.87,SSW,208,7.0,13.0,88,0.00,,---,0.19,VWS V14.01,2013-10-17 04:52:00,
2013-10-16 23:57:00,38.8,35.6,29.87,SSW,195,6.0,14.0,88,0.00,,---,0.19,VWS V14.01,2013-10-17 04:57:00,